• In Czech Republic
  • List of Countries
  • For 7 days
  • Water Temperature
  • Satellite Maps
  • Weather Map
  • Weather Widgets
  • user-avatar
    Login

    Hourly Weather Campobasso

    Today, 25 September, Tuesday

    Time Temperature Precipitation Wind Pressure Humidity
    00:00 +13°C° 0 mm 5 mps 705 mmHg 67%
    01:00 +13°C° 0 mm 5 mps 705 mmHg 63%
    02:00 +13°C° 0 mm 5 mps 705 mmHg 62%
    03:00 +13°C° 0 mm 5 mps 705 mmHg 60%
    04:00 +13°C° 0 mm 5 mps 705 mmHg 59%
    05:00 +12°C° 0 mm 5 mps 706 mmHg 58%
    06:00 +12°C° 0 mm 5 mps 706 mmHg 58%
    07:00 +11°C° 0 mm 6 mps 706 mmHg 57%
    08:00 +13°C° 0 mm 6 mps 707 mmHg 54%
    09:00 +14°C° 0 mm 6 mps 707 mmHg 51%
    10:00 +15°C° 0 mm 6 mps 708 mmHg 48%
    11:00 +15°C° 0 mm 7 mps 708 mmHg 47%
    12:00 +15°C° 0 mm 7 mps 708 mmHg 46%
    13:00 +15°C° 0 mm 7 mps 708 mmHg 45%
    14:00 +15°C° 0 mm 7 mps 708 mmHg 46%
    15:00 +15°C° 0 mm 7 mps 708 mmHg 47%
    16:00 +14°C° 0 mm 7 mps 707 mmHg 48%
    17:00 +13°C° 0 mm 6 mps 708 mmHg 51%
    18:00 +11°C° 0 mm 6 mps 708 mmHg 53%
    19:00 +12°C° 0 mm 5 mps 708 mmHg 56%
    20:00 +10°C° 0 mm 5 mps 708 mmHg 57%
    21:00 +10°C° 0 mm 5 mps 709 mmHg 58%
    22:00 +10°C° 0 mm 5 mps 709 mmHg 59%
    23:00 +9°C° 0 mm 5 mps 709 mmHg 60%

    Tomorrow, 26 September, Wednesday

    Time Temperature Precipitation Wind Pressure Humidity
    00:00 +9°C° 0 mm 5 mps 709 mmHg 62%
    01:00 +9°C° 0 mm 5 mps 709 mmHg 63%
    02:00 +8°C° 0 mm 4 mps 709 mmHg 65%
    03:00 +8°C° 0 mm 4 mps 709 mmHg 66%
    04:00 +8°C° 0 mm 4 mps 709 mmHg 68%
    05:00 +8°C° 0 mm 4 mps 709 mmHg 67%
    06:00 +8°C° 0 mm 5 mps 709 mmHg 66%
    07:00 +9°C° 0 mm 5 mps 709 mmHg 65%
    08:00 +10°C° 0 mm 5 mps 710 mmHg 60%
    09:00 +13°C° 0 mm 5 mps 710 mmHg 54%
    10:00 +15°C° 0 mm 6 mps 711 mmHg 48%
    11:00 +15°C° 0 mm 6 mps 711 mmHg 46%
    12:00 +16°C° 0 mm 6 mps 711 mmHg 45%
    13:00 +17°C° 0 mm 6 mps 711 mmHg 43%
    14:00 +16°C° 0 mm 5 mps 711 mmHg 44%
    15:00 +16°C° 0 mm 5 mps 711 mmHg 46%
    16:00 +15°C° 0 mm 5 mps 710 mmHg 47%
    17:00 +14°C° 0 mm 4 mps 710 mmHg 53%
    18:00 +12°C° 0 mm 3 mps 710 mmHg 59%
    19:00 +10°C° 0 mm 3 mps 710 mmHg 65%
    20:00 +10°C° 0 mm 2 mps 710 mmHg 66%
    21:00 +9°C° 0 mm 2 mps 710 mmHg 67%
    22:00 +9°C° 0 mm 2 mps 711 mmHg 69%
    23:00 +9°C° 0 mm 2 mps 710 mmHg 67%

    Day after tomorrow, 27 September, Thursday

    Time Temperature Precipitation Wind Pressure Humidity
    00:00 +9°C° 0 mm 2 mps 710 mmHg 66%
    01:00 +9°C° 0 mm 2 mps 710 mmHg 65%
    02:00 +8°C° 0 mm 2 mps 710 mmHg 63%
    03:00 +8°C° 0 mm 2 mps 709 mmHg 61%
    04:00 +8°C° 0 mm 2 mps 709 mmHg 59%
    05:00 +9°C° 0 mm 2 mps 709 mmHg 58%
    06:00 +9°C° 0 mm 2 mps 709 mmHg 56%
    07:00 +10°C° 0 mm 2 mps 709 mmHg 55%
    08:00 +13°C° 0 mm 2 mps 709 mmHg 50%
    09:00 +16°C° 0 mm 3 mps 710 mmHg 46%
    10:00 +18°C° 0 mm 3 mps 710 mmHg 42%
    11:00 +19°C° 0 mm 3 mps 710 mmHg 39%
    12:00 +20°C° 0 mm 3 mps 710 mmHg 37%
    13:00 +21°C° 0 mm 3 mps 709 mmHg 35%
    14:00 +20°C° 0 mm 3 mps 709 mmHg 37%
    15:00 +20°C° 0 mm 4 mps 708 mmHg 39%
    16:00 +20°C° 0 mm 4 mps 708 mmHg 41%
    17:00 +18°C° 0 mm 3 mps 707 mmHg 47%
    18:00 +16°C° 0 mm 3 mps 707 mmHg 53%
    19:00 +14°C° 0 mm 2 mps 706 mmHg 59%
    20:00 +14°C° 0 mm 2 mps 706 mmHg 59%
    21:00 +13°C° 0 mm 2 mps 706 mmHg 59%
    22:00 +13°C° 0 mm 2 mps 705 mmHg 59%
    23:00 +13°C° 0 mm 2 mps 705 mmHg 58%

    28 September, Friday

    Time Temperature Precipitation Wind Pressure Humidity
    00:00 +13°C° 0 mm 2 mps 704 mmHg 57%
    01:00 +13°C° 0 mm 2 mps 704 mmHg 57%
    02:00 +12°C° 0 mm 2 mps 704 mmHg 56%
    03:00 +12°C° 0 mm 2 mps 703 mmHg 55%
    04:00 +12°C° 0 mm 2 mps 703 mmHg 55%
    05:00 +13°C° 0 mm 2 mps 703 mmHg 53%
    06:00 +13°C° 0 mm 2 mps 703 mmHg 52%
    07:00 +14°C° 0 mm 2 mps 703 mmHg 51%
    08:00 +16°C° 0 mm 2 mps 703 mmHg 46%
    09:00 +18°C° 0 mm 2 mps 703 mmHg 41%
    10:00 +21°C° 0 mm 3 mps 704 mmHg 37%
    11:00 +22°C° 0 mm 3 mps 704 mmHg 36%
    12:00 +22°C° 0 mm 3 mps 704 mmHg 35%
    13:00 +24°C° 0 mm 3 mps 703 mmHg 33%
    14:00 +24°C° 0 mm 3 mps 703 mmHg 36%
    15:00 +24°C° 0 mm 3 mps 703 mmHg 39%
    16:00 +22°C° 0 mm 3 mps 702 mmHg 41%
    17:00 +20°C° 0 mm 2 mps 702 mmHg 49%
    18:00 +18°C° 0 mm 2 mps 702 mmHg 56%
    19:00 +16°C° 0 mm 1 mps 702 mmHg 63%
    20:00 +16°C° 0 mm 1 mps 702 mmHg 65%
    21:00 +16°C° 0 mm 1 mps 702 mmHg 66%
    22:00 +15°C° 0 mm 1 mps 702 mmHg 67%
    23:00 +15°C° 0 mm 1 mps 701 mmHg 66%

    29 September, Saturday

    Time Temperature Precipitation Wind Pressure Humidity
    00:00 +15°C° 0 mm 1 mps 701 mmHg 65%
    01:00 +15°C° 0 mm 1 mps 701 mmHg 64%
    02:00 +14°C° 0 mm 1 mps 701 mmHg 63%
    03:00 +14°C° 0 mm 1 mps 701 mmHg 61%
    04:00 +14°C° 0 mm 1 mps 700 mmHg 60%
    05:00 +14°C° 0 mm 1 mps 701 mmHg 58%
    06:00 +15°C° 0 mm 1 mps 701 mmHg 57%
    07:00 +15°C° 0 mm 1 mps 701 mmHg 55%
    08:00 +18°C° 0 mm 1 mps 701 mmHg 49%
    09:00 +21°C° 0 mm 1 mps 702 mmHg 43%
    10:00 +23°C° 0 mm 1 mps 702 mmHg 37%
    11:00 +24°C° 0 mm 2 mps 702 mmHg 36%
    12:00 +24°C° 0 mm 2 mps 702 mmHg 35%
    13:00 +25°C° 0 mm 2 mps 702 mmHg 33%
    14:00 +25°C° 0 mm 2 mps 702 mmHg 36%
    15:00 +24°C° 0 mm 2 mps 702 mmHg 38%
    16:00 +24°C° 0 mm 2 mps 702 mmHg 41%
    17:00 +21°C° 0 mm 2 mps 702 mmHg 50%
    18:00 +20°C° 0 mm 1 mps 702 mmHg 58%
    19:00 +18°C° 0 mm 1 mps 701 mmHg 67%
    20:00 +18°C° 0 mm 1 mps 702 mmHg 69%
    21:00 +16°C° 0 mm 1 mps 702 mmHg 71%
    22:00 +16°C° 0 mm 1 mps 702 mmHg 72%
    23:00 +16°C° 0 mm 1 mps 702 mmHg 73%

    30 September, Sunday

    Time Temperature Precipitation Wind Pressure Humidity
    00:00 +15°C° 0 mm 1 mps 702 mmHg 73%
    01:00 +15°C° 0 mm 1 mps 702 mmHg 73%
    02:00 +15°C° 0 mm 1 mps 701 mmHg 74%
    03:00 +15°C° 0 mm 1 mps 701 mmHg 74%
    04:00 +14°C° 0 mm 1 mps 701 mmHg 75%
    05:00 +15°C° 0 mm 1 mps 701 mmHg 73%
    06:00 +15°C° 0 mm 1 mps 701 mmHg 72%
    07:00 +16°C° 0 mm 1 mps 702 mmHg 71%
    08:00 +19°C° 0 mm 1 mps 702 mmHg 64%
    09:00 +20°C° 0 mm 1 mps 702 mmHg 57%
    10:00 +22°C° 0 mm 1 mps 703 mmHg 51%
    11:00 +23°C° 0 mm 1 mps 703 mmHg 48%
    12:00 +24°C° 0 mm 1 mps 703 mmHg 45%
    13:00 +25°C° 0 mm 2 mps 703 mmHg 42%
    14:00 +24°C° 0 mm 2 mps 702 mmHg 44%
    15:00 +24°C° 0 mm 2 mps 702 mmHg 46%
    16:00 +23°C° 0 mm 2 mps 702 mmHg 48%
    17:00 +21°C° 0 mm 2 mps 702 mmHg 55%
    18:00 +20°C° 0 mm 1 mps 702 mmHg 62%
    19:00 +18°C° 0 mm 1 mps 701 mmHg 69%
    20:00 +18°C° 0 mm 1 mps 701 mmHg 71%
    21:00 +16°C° 0 mm 1 mps 701 mmHg 74%
    22:00 +16°C° 0 mm 1 mps 701 mmHg 76%
    23:00 +16°C° 0 mm 1 mps 701 mmHg 77%
    Show more